Regional Weather Roundup
Issued by NWS Memphis, TN

Home | Current Version | Previous Version | Text Only | Print | Product List | Glossary On
Versions: 1 2 3 4 5 6 7 8 9 10 11 12 13 14 15 16 17 18 19 20 21 22 23 24 25 26 27 28 29 30 31 32 33 34 35 36 37 38 39 40 41 42 43 44 45 46 47 48 49 50
000
ASUS44 KMEG 301710
RWRMEG
MEMPHIS CWA HOURLY WEATHER ROUNDUP
NATIONAL WEATHER SERVICE MEMPHIS TN
1200 PM CDT SAT MAY 30 2015

...WEST TENNESSEE...

CITY           SKY/WX    TMP DP  RH WIND       PRES   REMARKS
MEMPHIS INTL   PTSUNNY   82  68  62 SW15G31   30.00S
NWS MEMPHIS      N/A     78 N/A N/A MISG        N/A
JACKSON        MOSUNNY   83  69  62 S14G21    30.00F
LEXINGTON      PTSUNNY   79  70  73 S15       30.03F
DYERSBURG      PTSUNNY   75  57  53 SW12G23   29.97F
PARIS          MOSUNNY   81  68  65 S15G26    30.00F


...EASTERN ARKANSAS...

CITY           SKY/WX    TMP DP  RH WIND       PRES   REMARKS
JONESBORO      LGT RAIN  70  69  97 SW21G29   29.96R
WEST MEMPHIS   LGT RAIN  79  72  79 SW12G23   29.99R
BATESVILLE     PTSUNNY   73  68  83 W8        30.00R
NEWPORT        CLOUDY    74  73  96 SW9       30.00R
WALNUT RIDGE   MOSUNNY   73  64  73 W21G31    29.93R
BLYTHEVILLE    PTSUNNY   73  70  90 SW16G32   29.96R
SEARCY         CLOUDY    76  70  82 MISG      30.03R
STUTTGART      CLOUDY    77  68  73 W14       30.04S
PINE BLUFF     PTSUNNY   79  68  69 SW8       30.03S
MONTICELLO     MOSUNNY   83  71  67 W9        30.03S


...NORTH MISSISSIPPI...

CITY           SKY/WX    TMP DP  RH WIND       PRES   REMARKS
TUPELO         MOSUNNY   78  70  76 SW9       30.06S
OXFORD         PTSUNNY   81  66  61 SW18      30.06S
OLIVE BRANCH   PTSUNNY   79  75  89 S14G23    30.01S
TUNICA         PTSUNNY   81  70  69 SW17G24   30.02S
CLARKSDALE     PTSUNNY   81  73  78 CALM      30.03S
GREENWOOD      TSTM      75  70  84 SW9       30.06R
COLUMBUS       MOSUNNY   84  70  62 S12       30.08S
STARKVILLE     FAIR      81  70  69 S8G18     30.08S
GOLDEN TRIANGL PTSUNNY   79  70  73 S12       30.08F


...SOUTHEAST MISSOURI...

CITY           SKY/WX    TMP DP  RH WIND       PRES   REMARKS
WEST PLAINS    CLOUDY    67  64  90 W5        30.01S
POPLAR BLUFF   PTSUNNY   75  68  78 S9        29.90F
CAPE GIRARDEAU SUNNY     77  71  82 S12G18    29.93F


...NORTHWEST ALABAMA...

CITY           SKY/WX    TMP DP  RH WIND       PRES   REMARKS
MUSCLE SHOALS  MOSUNNY   81  67  62 S10       30.10F


...MIDDLE TENNESSEE...

CITY           SKY/WX    TMP DP  RH WIND       PRES   REMARKS
NASHVILLE      PTSUNNY   85  67  54 S14G25    30.07F
CLARKSVILLE    PTSUNNY   82  66  58 S15G28    30.03F
COLUMBIA       MOSUNNY   81  70  69 S10       30.07F


...WESTERN KENTUCKY...

CITY           SKY/WX    TMP DP  RH WIND       PRES   REMARKS
PADUCAH        PTSUNNY   80  67  64 S10G20    29.96F
FORT CAMPBELL  PTSUNNY   81  68  64 S12       30.03F


...CENTRAL ARKANSAS...

CITY           SKY/WX    TMP DP  RH WIND       PRES   REMARKS
LITTLE ROCK    CLOUDY    76  66  71 SW8       30.03S


SKY/WX REPORTED AS FAIR MEANS FEW OR NO CLOUDS BELOW
12 THOUSAND FEET.




USA.gov is the U.S. government's official web portal to all federal, state and local government web resources and services.